Hauptseite
METAR-TAF:

METAR-TAF

Flughäfen :

Lechfeld, Deutschland

Fliegerhorst Lechfeld

Breite: 48-11N, Länge: 010-52E, Höhe: 555 m

Beobachtung

Neuester Wetterbericht von vor 28 Minuten, um 23:20 UTC
Wind 7 kt aus West
Temperatur 4°C
Luftfeuchtigkeit 93%
Luftdruck 1005 hPa
Sichtweite 10 km oder mehr
Leicht bewölkt in der Höhe von 600 ft
Geschlossene Wolkendecke in der Höhe von 1500 ft
Regen

METAR: ETSL 182320Z 26007KT 9999 RA FEW006 OVC015 04/03 Q1005 WHT

Zeit: 00:48 (23:48 UTC)


TAF: fehlend

Wetterbeobachtungen und Prognosen von mehr als 4000 Flughäfen (METAR und TAF Bericht).

Die verfügbaren Stationen werden durch gelbe und rote Markierungen auf der Karte dargestellt.

Führen Sie die Maus auf sie, um den Namen der Station zu sehen.

Darauf klicken, um die Beobachtung von Wetterbeobachtungen und Prognosen zu sehen.

Um die Karte zu ändern : klicken Sie auf den grünen Tasten mit einem schwarzen Kreuz Zum Vergrößern, auf den grünen Button mit einem Gedankenstrich zu verkleinern, oder auf die grünen Pfeile für benachbarte Karten.


METAR-TAF: